Regional Weather Roundup
Issued by NWS Upton, NY

Current Version | Previous Version | Graphics & Text | Print | Product List | Glossary Off
Versions: 1 2 3 4 5 6 7 8 9 10 11 12 13 14 15 16 17 18 19 20 21 22 23 24 25 26 27 28 29 30 31 32 33 34 35 36 37 38 39 40 41 42 43 44 45 46 47 48 49 50

000
ASUS41 KOKX 060818
RWROKX

REGIONAL WEATHER ROUNDUP
NATIONAL WEATHER SERVICE NEW YORK NY
400 AM EDT MON JUL 06 2015

NOTE: "FAIR" INDICATES FEW OR NO CLOUDS BELOW 12,000 FEET WITH NO
SIGNIFICANT WEATHER AND/OR OBSTRUCTIONS TO VISIBILITY.

NYZ071-072-176-178-NJZ106-104-060900-
NEW YORK CITY METRO AREA


CITY           SKY/WX    TMP DP  RH WIND       PRES   REMARKS
CENTRAL PARK   MOCLDY    73  65  75 W3        30.16F
LAGUARDIA APRT MOCLDY    73  66  78 S3        30.13S
KENNEDY INTL   MOCLDY    70  65  84 SW5       30.15F
NEWARK/LIBERTY MOCLDY    70  67  90 SW6       30.14S
BRNX BOT. GARD   N/A     66  64  94 E1        30.13F
TETERBORO      MOCLDY    69  65  86 CALM      30.13S
$$

NYZ177-179-078>081-060900-
LONG ISLAND NEW YORK

CITY           SKY/WX    TMP DP  RH WIND       PRES   REMARKS
FARMINGDALE    MOCLDY    70  67  90 SW3       30.14F
ISLIP          MOCLDY    69  66  90 CALM      30.13F
SHIRLEY        MOCLDY    66  63  90 CALM      30.15F
WESTHAMPTON    MOCLDY    60  59  96 CALM      30.16F
MONTAUK POINT    N/A     67  63  87 CALM      30.16F
$$

NYZ052-065-067-060900-
HUDSON VALLEY

CITY           SKY/WX    TMP DP  RH WIND       PRES   REMARKS
WHITE PLAINS   MOCLDY    65  63  93 CALM      30.15S
NEWBURGH       PTCLDY    64  63  94 CALM      30.16
MONTGOMERY     MOCLDY    61  60  97 CALM      30.15R FOG
POUGHKEEPSIE   PTCLDY    61  58  90 CALM      30.14S
ALBANY         MOCLDY    61  56  83 CALM      30.15S
$$

NJZ001-105-106-008-010-013-015-019>022-104-060900-
NEW JERSEY

CITY           SKY/WX    TMP DP  RH WIND       PRES   REMARKS
NEWARK/LIBERTY MOCLDY    70  67  90 SW6       30.14S
TETERBORO      MOCLDY    69  65  86 CALM      30.13S
CALDWELL       MOCLDY    65  61  87 CALM      30.15S
MORRISTOWN     MOCLDY    63  59  88 CALM      30.15S FOG
SOMERVILLE     MOCLDY    63  61  93 CALM      30.13S
SUSSEX         MOCLDY    61  59  93 CALM      30.16S FOG
ANDOVER          N/A     61  60  97 CALM      30.16S
TRENTON        MOCLDY    70  67  90 CALM      30.14S
MILLVILLE      CLOUDY    70  68  93 E3        30.14F
ATLANTIC CITY  CLOUDY    68  65  90 CALM      30.15S
WRIGHTSTOWN    MOCLDY    66  66  99 CALM      30.13S
TOMS RIVER     MOCLDY    64  63  94 CALM      30.16S
BELMAR         MOCLDY    68  63  83 SW3       30.16R
$$

PAZ047>061-062-071-060900-
EASTERN PENNSYLVANIA

CITY           SKY/WX    TMP DP  RH WIND       PRES   REMARKS
PHILADELPHIA   CLOUDY    73  68  84 SE6       30.14F
ALLENTOWN      MOCLDY    65  62  90 NE5       30.15S
SCRANTON       MOCLDY    63  57  81 E6        30.16S
$$

CTZ002-004>006-009-010-012-RIZ004-006-007-MAZ004-011-015-060900-
SOUTHERN NEW ENGLAND
 IN CT

CITY           SKY/WX    TMP DP  RH WIND       PRES   REMARKS
BRADLEY INTL   MOCLDY    62  59  90 CALM      30.14S
HARTFORD       PTCLDY    64  62  93 SE8       30.14S
DANBURY        PTCLDY    60  56  86 CALM      30.17S
WTRBRY/OXFORD  PTCLDY    63  55  77 CALM      30.18R
BRIDGEPORT     MOCLDY    67  64  90 CALM      30.14F
MERIDEN        PTCLDY    62  59  90 CALM      30.14S FOG
NEW HAVEN      PTCLDY    62  60  93 CALM      30.14F
CHESTER        FAIR      64  63  94 CALM      30.16S
GROTON         PTCLDY    62  60  93 CALM      30.14F FOG
WILLIMANTIC    MOCLDY    62  59  90 CALM      30.16R

 IN RI

CITY           SKY/WX    TMP DP  RH WIND       PRES   REMARKS
PROVIDENCE     CLEAR     66  63  90 SW3         N/A
BLOCK ISLAND   PTCLDY    64  61  88 W7        30.15S
WESTERLY       PTCLDY    61  59  93 CALM      30.15F

 IN MA

CITY           SKY/WX    TMP DP  RH WIND       PRES   REMARKS
BOSTON         PTCLDY    69  62  78 W6        30.14R
WORCESTER      CLEAR     66  58  75 W7        30.17S
WESTFIELD      PTCLDY    60  58  92 CALM      30.15S
PROVINCETOWN   CLEAR     63   7  11 SW6       30.13S
NANTUCKET      CLEAR     65  62  90 W6        30.14F
$$

ANZ330-335-338-340-345-350-353-355-060900-
COASTAL MARINE OBSERVATIONS


STATION/POSITION TIME  SKY/WX   TEMP    WIND        PRES    VSBY  WAVE
                                AIR SEA DIR/SP/G                  HT/PER
                 (UTC)          (F)     (DEG/KT/KT) (MB)    (MI)  (FT/S)
NY HARB ENTRANCE 0750            71 71  240/  4/  6 1020.6          3/ 7
4S FIRE IS       0703               70                N/A           3/ 8
20S FIRE ISLAND  0750            70 70  200/  4/  6 1020.6          3/ 7
GREAT SOUTH BAY  0700            72 75  250/  8/ 10   N/A
23SW MTP         0750            69 69  220/  6/  6 1020.7          3/ 8
HUDSON CANYON    NOT AVBL
KINGS POINT      0700            71 67  170/  4/  6 1020.1
CENTRAL LI SOUND NOT AVBL
EASTERN LI SOUND 0700            65 64  200/  4/  6   N/A
ROBBINS REEF     0700            72     190/  4/  5 1019.7
$$


>>>>>>>>>>>>>>>>>>>>>>>>>>>> KEY <<<<<<<<<<<<<<<<<<<<<<<<<<<
>                                                          <
>     SKY/WX - SKY CONDITION/PRESENT WEATHER               <
>     TMP    - TEMPERATURE IN FAHRENHEIT                   <
>     DP     - DEWPOINT IN FAHRENHEIT                      <
>     RH     - RELATIVE HUMIDITY IN PERCENT                <
>     WIND   - DIRECTION AND SPEED IN MPH                  <
>     PRES   - MEAN SEA LEVEL PRESSURE IN INCHES OF HG     <
>     WCI    - WIND CHILL INDEX                            <
>     VSB    - VISIBILITY IN MILES                         <
>     HX     - HEAT INDEX                                  <
>     TC     - TEMPERATURE IN CELSIUS                      <
>     VRB    - VARIABLE WIND DIRECTION                     <
>                                                          <
>>>>>>>>>>>>>>>>>>>>>>>>>>>> KEY <<<<<<<<<<<<<<<<<<<<<<<<<<<




USA.gov is the U.S. government's official web portal to all federal, state and local government web resources and services.